Home   Weather   Loma Linda   Past weeks
Flag for USA

Past Weather in Loma Linda, California, USA — Yesterday and Last 2 Weeks

Now
62 °F

Clear.


Feels Like: 62 °F
Forecast: 77 / 51 °F
Wind: 6 mph from West

Location: Norton Air Force Base / San Bern

Current Time: Oct 13, 2019 at 11:05:55 pm

Latest Report: Oct 13, 2019 at 10:20 pm


Visibility: 10 mi

Pressure: 29.90 "Hg

Humidity: 73%

Dew Point: 53 °F

Location of Loma LindaLocation

Past Weather in Loma Linda — Graph

°F

Loma Linda Temperature Yesterday

Maximum temperature yesterday: 90 °F (at 2:47 pm)
Minimum temperature yesterday: 49 °F (at 5:24 am)
Average temperature yesterday: 66 °F

High & Low Weather Summary for the Past Weeks

 TemperatureHumidityPressure
High99 °F (Oct 6, 2:50 pm)77% (Sep 29, 6:48 am)30.08 "Hg (Sep 29, 6:48 am)
Low46 °F (Oct 11, 7:00 am)4% (Oct 10, 4:47 pm)29.77 "Hg (Oct 9, 3:48 pm)
Average66 °F38%29.92 "Hg
* Reported Sep 28 10:04 pm — Oct 13 10:00 pm, Loma Linda. Weather by CustomWeather, © 2019

Note: Actual official high and low records may vary slightly from our data, if they occured in-between our weather recording intervals... More about our weather records

Advertising

Loma Linda Weather History for the Previous 24 Hours

Scroll right to see more
 ConditionsComfort  
Time TempWeatherWind HumidityBarometerVisibility
10:00 pm
Sun, Oct 13
64 °FClear.6 mph70%29.90 "Hg10 mi
9:41 pm64 °FClear.6 mph68%29.90 "Hg10 mi
8:50 pm66 °FClear.7 mph60%29.88 "Hg7 mi
7:50 pm68 °FClear.6 mph49%29.87 "Hg7 mi
6:50 pm73 °FClear.9 mph31%29.84 "Hg6 mi
5:50 pm77 °FSunny.14 mph26%29.82 "Hg6 mi
4:50 pm81 °FSunny.13 mph23%29.81 "Hg6 mi
3:50 pm84 °FSunny.12 mph15%29.81 "Hg6 mi
2:53 pm84 °FSunny.8 mph15%29.81 "Hg6 mi
1:50 pm84 °FSunny.10 mph14%29.82 "Hg6 mi
12:49 pm84 °FSunny.7 mph14%29.85 "Hg10 mi
11:50 am77 °FSunny.9 mph17%29.88 "Hg10 mi
10:50 am75 °FSunny.7 mph18%29.89 "Hg10 mi
8:45 am63 °FSunny.No wind25%29.89 "Hg10 mi
7:45 am55 °FSunny.No wind36%29.87 "Hg10 mi
7:00 am54 °FSunny.No wind35%29.85 "Hg10 mi
5:40 am49 °FClear.No wind39%29.85 "Hg10 mi
5:20 am53 °FClear.No wind36%29.85 "Hg10 mi
5:01 am54 °FClear.No wind35%29.85 "Hg10 mi
4:43 am55 °FClear.No wind36%29.85 "Hg10 mi
4:24 am53 °FClear.No wind35%29.85 "Hg10 mi
4:00 am54 °FClear.No wind33%29.86 "Hg10 mi
3:21 am55 °FClear.No wind36%29.86 "Hg10 mi
3:03 am56 °FClear.No wind35%29.87 "Hg10 mi
2:40 am56 °FClear.3 mph33%29.87 "Hg10 mi
2:00 am58 °FClear.No wind34%29.88 "Hg10 mi
1:23 am58 °FClear.No wind33%29.88 "Hg10 mi
1:05 am57 °FClear.No wind34%29.88 "Hg10 mi
12:40 am60 °FClear.No wind32%29.88 "Hg10 mi
12:20 am60 °FClear.No wind32%29.88 "Hg10 mi
12:01 am62 °FClear.5 mph32%29.88 "Hg10 mi
11:24 pm
Sat, Oct 12
63 °FClear.No wind29%29.88 "Hg10 mi
11:00 pm64 °FClear.No wind31%29.89 "Hg10 mi
Weather by CustomWeather, © 2019

See weather overview